TimeEDT,TemperatureF,Dew PointF,Humidity,Sea Level PressureIn,VisibilityMPH,Wind Direction,Wind SpeedMPH,Gust SpeedMPH,PrecipitationIn,Events,Conditions,WindDirDegrees,DateUTC
12:36 AM,66.2,62.6,88,29.79,10.0,West,5.8,-,N/A,,Overcast,270,2013-07-24 04:36:00
12:51 AM,64.9,63.0,93,29.79,10.0,West,4.6,-,N/A,,Overcast,260,2013-07-24 04:51:00
1:14 AM,66.2,62.6,88,29.80,9.0,West,4.6,-,N/A,,Overcast,260,2013-07-24 05:14:00
1:51 AM,66.9,64.0,90,29.80,10.0,WNW,9.2,-,N/A,,Overcast,300,2013-07-24 05:51:00
2:08 AM,66.2,64.4,94,29.80,10.0,NW,9.2,-,N/A,,Overcast,320,2013-07-24 06:08:00
2:51 AM,66.9,62.1,84,29.79,10.0,NNW,12.7,-,N/A,,Overcast,340,2013-07-24 06:51:00
3:29 AM,66.2,59.0,78,29.80,10.0,NNW,13.8,-,N/A,,Overcast,340,2013-07-24 07:29:00
3:51 AM,64.9,57.9,78,29.79,10.0,North,17.3,-,N/A,,Mostly Cloudy,360,2013-07-24 07:51:00
4:51 AM,63.0,55.0,75,29.81,10.0,North,12.7,20.7,N/A,,Mostly Cloudy,360,2013-07-24 08:51:00
5:51 AM,62.1,54.0,75,29.84,10.0,North,9.2,-,N/A,,Scattered Clouds,360,2013-07-24 09:51:00
6:51 AM,61.0,54.0,78,29.87,10.0,North,6.9,-,N/A,,Scattered Clouds,350,2013-07-24 10:51:00
7:51 AM,62.1,53.1,72,29.90,10.0,North,8.1,-,N/A,,Scattered Clouds,350,2013-07-24 11:51:00
8:51 AM,64.9,55.0,70,29.92,10.0,North,6.9,-,N/A,,Scattered Clouds,350,2013-07-24 12:51:00
9:51 AM,66.0,51.1,59,29.93,10.0,North,12.7,-,N/A,,Mostly Cloudy,350,2013-07-24 13:51:00
10:51 AM,66.0,50.0,56,29.94,10.0,North,11.5,-,N/A,,Overcast,360,2013-07-24 14:51:00
11:51 AM,64.9,51.1,61,29.96,10.0,North,11.5,-,N/A,,Overcast,350,2013-07-24 15:51:00
12:51 PM,66.0,51.1,59,29.96,10.0,North,8.1,17.3,N/A,,Mostly Cloudy,360,2013-07-24 16:51:00
1:51 PM,68.0,51.1,55,29.95,10.0,North,6.9,-,N/A,,Mostly Cloudy,350,2013-07-24 17:51:00
2:51 PM,70.0,51.1,51,29.94,10.0,North,9.2,-,N/A,,Mostly Cloudy,360,2013-07-24 18:51:00
3:51 PM,71.1,50.0,47,29.96,10.0,NNW,8.1,-,N/A,,Mostly Cloudy,340,2013-07-24 19:51:00
4:51 PM,70.0,50.0,49,29.97,10.0,NNW,5.8,-,N/A,,Scattered Clouds,330,2013-07-24 20:51:00
5:51 PM,70.0,51.1,51,29.97,10.0,North,10.4,-,N/A,,Scattered Clouds,360,2013-07-24 21:51:00
6:51 PM,70.0,50.0,49,29.96,10.0,NNW,11.5,-,N/A,,Partly Cloudy,330,2013-07-24 22:51:00
7:51 PM,68.0,50.0,52,29.98,10.0,NNW,10.4,-,N/A,,Partly Cloudy,330,2013-07-24 23:51:00
8:51 PM,66.0,51.1,59,29.99,10.0,North,9.2,-,N/A,,Partly Cloudy,350,2013-07-25 00:51:00
9:51 PM,64.0,51.1,63,30.01,10.0,North,8.1,-,N/A,,Partly Cloudy,350,2013-07-25 01:51:00
10:51 PM,62.1,51.1,67,30.01,10.0,North,11.5,-,N/A,,Partly Cloudy,360,2013-07-25 02:51:00
11:51 PM,61.0,50.0,67,30.02,10.0,NNE,8.1,-,N/A,,Clear,20,2013-07-25 03:51:00